Weather observations for the past three days for
Richard I. Bong Airport
Imperial (Metric)
Date Time (cdt) Wind (mph) Vis. (mi.) Weather Sky Cond. Temperature (ºF) Relative Humidity Wind Chill (°F) Heat Index (°F) Pressure Precipitation (in)
Air Dwpt 6 hour altimeter (in) sea level (mb) 1 hr 3 hr 6 hr
Max. Min.
18 06:35 Calm 10.00 Fair CLR 49.3 48 95% 30.23 0.0
18 06:15 Calm 10.00 Fair CLR 49.1 47.7 95% 30.23 0.0
18 05:55 Calm 10.00 Fair CLR 48.4 47.1 95% 30.23 0.0
18 05:35 Calm 10.00 Fair CLR 49.6 48.2 95% 30.23 0.0
18 05:15 SW 3 10.00 Fair CLR 50 48.4 94% 30.22 0.0
18 04:55 Calm 10.00 Fair CLR 49.5 48.2 95% 30.22 0.0
18 04:35 Calm 10.00 Fair CLR 49.6 48.4 95% 30.21 0.0
18 04:15 Calm 10.00 Fair CLR 50 48.4 94% 30.2 0.0
18 03:55 SW 3 10.00 Fair CLR 50.2 48.7 95% 30.2 0.0
18 03:35 Calm 10.00 Fair CLR 50.4 49.1 95% 30.19 0.0
18 03:15 SW 3 10.00 Fair CLR 49.3 48.6 97% 30.19 0.0
18 02:55 SW 3 10.00 Fair CLR 50.4 49.3 96% 30.19 0.0
18 02:35 Calm 10.00 Fair CLR 50.7 49.1 94% 30.19 0.0
18 02:15 Calm 10.00 Fair CLR 50.4 48.6 94% 30.19 0.0
18 01:55 SW 3 10.00 Fair CLR 51.3 50.4 97% 30.19 0.0
18 01:35 Calm 10.00 Fair CLR 50.4 49.5 97% 30.19 0.0
18 01:15 S 3 10.00 Fair CLR 49.3 48.4 97% 30.19 0.0
18 00:55 S 3 10.00 Fair CLR 50 49.1 70.9 49.3 97% 30.19 0.0
18 00:35 S 3 10.00 Fair CLR 50 48.7 95% 30.19 0.0
18 00:15 Calm 10.00 Fair CLR 49.5 48.2 95% 30.18 0.0
17 23:55 Calm 10.00 Fair CLR 50 48.6 95% 30.18 0.0
17 23:35 Calm 10.00 Fair CLR 50.9 48.7 92% 30.18 0.0
17 23:15 Calm 10.00 Fair CLR 52.7 48.7 86% 30.17 0.0
17 22:55 Calm 10.00 Fair CLR 52.3 50 92% 30.17 0.0
17 22:35 Calm 10.00 Fair CLR 54.1 50.4 87% 30.17 0.0
17 22:15 NW 3 10.00 Fair CLR 53.6 50.9 91% 30.17 0.0
17 21:55 Calm 10.00 Fair CLR 55.6 50 82% 30.17 0.0
17 21:35 N 3 10.00 Fair CLR 59.5 49.5 69% 30.16 0.0
17 21:15 N 3 10.00 Fair CLR 61.9 49.5 64% 30.16 0.0
17 20:55 N 3 10.00 Fair CLR 62.8 49.6 62% 30.16 0.0
17 20:35 N 3 10.00 Fair CLR 64.9 50.2 59% 30.15 0.0
17 20:15 Calm 10.00 Fair CLR 66.9 49.8 54% 30.15 0.0
17 19:55 N 3 10.00 Partly Cloudy SCT070 68.2 49.6 52% 30.15 0.0
17 19:35 N 7 10.00 Partly Cloudy SCT070 69.3 50 50% 30.15 0.0
17 19:15 N 7 10.00 Partly Cloudy SCT050 SCT070 70 49.1 48% 30.15 0.0
17 18:55 NW 9 10.00 Mostly Cloudy SCT050 SCT060 BKN070 71.1 49.3 72.7 66.9 46% 30.15 0.0
17 18:35 N 7 10.00 Mostly Cloudy BKN070 70.7 49.3 47% 30.15 0.0
17 18:15 N 8 10.00 Overcast OVC070 72.5 50.2 45% 30.14 0.0
17 17:55 N 7 10.00 Overcast OVC070 71.4 50 47% 30.14 0.0
17 17:35 N 6 10.00 Overcast SCT055 OVC070 69.4 49.8 50% 30.15 0.0
17 17:15 NW 9 10.00 Mostly Cloudy BKN070 70 49.5 48% 30.15 0.0
17 16:55 NW 5 10.00 Partly Cloudy SCT070 72.5 48.9 43% 30.15 0.0
17 16:40 N 10 10.00 Mostly Cloudy BKN060 70.9 48.9 46% 30.15 0.0
17 16:15 N 8 10.00 Partly Cloudy SCT060 72.5 49.8 45% 30.15 0.0
17 15:55 N 9 G 16 10.00 Mostly Cloudy BKN060 71.8 49.5 45% 30.15 0.0
17 15:35 N 14 G 18 10.00 Partly Cloudy SCT060 72 49.6 45% 30.15 0.0
17 15:15 W 7 10.00 Partly Cloudy SCT060 70.3 50.2 49% 30.15 0.0
17 14:55 NW 9 10.00 Mostly Cloudy SCT050 BKN060 69.1 50 51% 30.16 0.0
17 14:35 NW 13 G 16 10.00 Overcast SCT049 OVC060 71.8 51.1 48% 30.15 0.0
17 14:15 N 9 10.00 Overcast SCT048 OVC060 69.8 50.2 50% 30.15 0.0
17 13:55 NW 9 10.00 Overcast SCT048 OVC060 68.9 50.2 51% 30.15 0.0
17 13:35 N 8 10.00 Overcast SCT048 OVC060 67.6 48.9 51% 30.16 0.0
17 13:15 N 10 10.00 Overcast SCT047 OVC060 66.9 48.4 52% 30.15 0.0
17 12:55 N 7 10.00 Overcast SCT045 OVC060 67.5 49.6 68.2 56.7 53% 30.15 0.0
17 12:35 N 8 10.00 Overcast SCT041 OVC060 67.5 50 54% 30.15 0.0
17 12:15 NE 5 10.00 Overcast SCT041 OVC050 66.2 50.5 57% 30.15 0.0
17 11:55 Calm 10.00 Overcast SCT041 OVC050 66.4 51.4 59% 30.15 0.0
17 11:35 Calm 10.00 Overcast SCT038 BKN044 OVC050 65.3 50.4 59% 30.15 0.0
17 11:15 Calm 10.00 Overcast SCT036 BKN043 OVC050 64.4 50.5 61% 30.15 0.0
17 10:55 NE 5 10.00 Mostly Cloudy BKN040 BKN047 64.6 50.9 61% 30.14 0.0
17 10:35 E 7 10.00 Partly Cloudy SCT031 SCT039 SCT046 65.7 51.1 59% 30.13 0.0
17 10:15 NE 6 10.00 Mostly Cloudy BKN033 BKN039 64.4 50.4 61% 30.13 0.0
17 09:55 N 9 10.00 Mostly Cloudy BKN033 BKN042 63.3 50.4 63% 30.13 0.0
17 09:35 NE 7 10.00 Partly Cloudy SCT033 63.7 50 61% 30.12 0.0
17 09:15 N 7 10.00 Partly Cloudy SCT030 62.4 49.6 63% 30.12 0.0
17 08:55 N 8 10.00 Fair CLR 62.1 50.5 66% 30.12 0.0
17 08:15 N 9 G 16 10.00 Fair CLR 60.1 50.2 70% 30.11 0.0
17 07:55 NW 8 10.00 Fair CLR 59.2 50.2 72% 30.1 0.0
17 07:35 NW 10 10.00 Fair CLR 58.1 50 75% 30.09 0.0
17 07:15 N 9 G 16 10.00 Fair CLR 57 49.1 75% 30.09 0.0
17 06:55 NW 8 10.00 Fair CLR 56.7 48.9 61.5 54.9 75% 30.09 0.0
17 06:35 N 8 10.00 Fair CLR 56.3 48.2 74% 30.08 0.0
17 06:15 N 7 10.00 Partly Cloudy SCT025 SCT033 55.6 48.2 76% 30.08 0.0
17 05:55 N 6 10.00 Mostly Cloudy BKN025 BKN031 55.4 48.7 78% 30.07 0.0
17 05:35 N 5 10.00 Mostly Cloudy BKN025 55.4 48.7 78% 30.07 0.0
17 05:15 N 6 10.00 Partly Cloudy SCT025 55.9 49.8 80% 30.05 0.0
17 04:55 N 3 10.00 Fair CLR 55 50 83% 30.04 0.0
17 04:35 N 6 10.00 Fair CLR 55.9 50.2 81% 30.03 0.0
17 04:15 N 6 10.00 Fair CLR 55.9 50.5 82% 30.02 0.0
17 03:35 N 6 10.00 Partly Cloudy SCT090 55.9 50.9 83% 30.01 0.0
17 03:15 N 5 10.00 Partly Cloudy SCT090 57.2 51.3 81% 30.01 0.0
17 02:55 N 5 10.00 Mostly Cloudy BKN090 57.2 52 83% 30 0.0
17 02:35 N 7 10.00 Mostly Cloudy BKN090 58.1 51.4 79% 29.99 0.0
17 02:15 Calm 10.00 Partly Cloudy SCT090 57.4 52 82% 29.99 0.0
17 01:55 N 5 10.00 Mostly Cloudy SCT043 SCT080 BKN120 57.7 52.2 82% 29.99 0.0
17 01:35 N 5 10.00 Partly Cloudy SCT120 59.7 52 76% 29.99 0.0
17 01:15 N 5 10.00 Fair CLR 60.6 51.4 72% 29.98 0.0
17 00:55 N 3 10.00 Fair CLR 61.3 51.4 71.1 58.1 70% 29.98 0.0
17 00:35 NW 6 10.00 Fair CLR 59 51.4 76% 29.97 0.0
17 00:15 Calm 10.00 Fair CLR 58.6 51.3 77% 29.97 0.0
16 23:55 NW 5 10.00 Mostly Cloudy BKN090 59.2 51.6 76% 29.96 0.0
16 23:35 NW 6 10.00 Overcast OVC090 60.6 51.4 72% 29.95 0.0
16 23:20 Calm 10.00 Overcast OVC090 61.9 50.9 67% 29.95 0.0
16 22:55 NW 6 10.00 Mostly Cloudy BKN080 BKN110 61.7 51.3 69% 29.95 0.0
16 22:35 NW 6 10.00 Partly Cloudy SCT100 SCT110 60.4 51.3 72% 29.95 0.0
16 22:15 NW 7 10.00 Overcast OVC100 61.7 51.4 69% 29.94 0.0
16 21:55 NW 5 10.00 Partly Cloudy SCT070 SCT100 61.7 51.1 68% 29.94 0.0
16 21:35 NW 6 10.00 Partly Cloudy SCT070 63 51.3 66% 29.94 0.0
16 21:15 N 8 10.00 Fair CLR 63.5 51.1 64% 29.93 0.0
16 20:55 N 9 10.00 Partly Cloudy SCT080 64.9 50.9 61% 29.93 0.0
16 20:35 N 6 10.00 Mostly Cloudy BKN090 66.7 51.4 58% 29.92 0.0
16 20:15 N 10 10.00 Overcast OVC090 69.1 51.4 54% 29.92 0.0
16 19:35 N 8 10.00 Partly Cloudy SCT090 69.4 51.6 53% 29.91 0.0
16 19:15 NW 13 10.00 Overcast SCT060 OVC090 70.7 52 52% 29.9 0.0
16 18:55 N 9 G 18 10.00 Mostly Cloudy BKN060 BKN075 BKN100 70.5 51.8 77.4 70.5 52% 29.89 0.0
16 18:35 NW 9 10.00 Partly Cloudy SCT060 SCT090 71.6 50.9 48% 29.88 0.0
16 18:15 NW 13 10.00 Partly Cloudy SCT060 73.2 50.4 45% 29.88 0.0
16 17:55 NW 9 10.00 Partly Cloudy SCT060 SCT095 75 50.5 42% 78 29.87 0.0
16 17:35 W 9 10.00 Mostly Cloudy SCT060 BKN095 75.6 51.6 43% 78 29.87 0.0
16 17:15 NW 8 10.00 Overcast SCT060 OVC095 72 52.5 51% 29.87 0.0
16 16:55 W 8 10.00 Overcast SCT060 BKN095 OVC110 74.8 51.4 44% 29.87 0.0
16 16:35 NW 8 10.00 Overcast SCT080 OVC110 72.9 51.6 47% 29.87 0.0
16 16:15 NW 9 10.00 Overcast OVC080 73.4 51.4 46% 29.87 0.0
16 15:55 NW 10 G 16 10.00 Overcast OVC095 72.1 51.4 48% 29.87 0.0
16 15:35 NW 7 10.00 Overcast SCT085 OVC095 73.4 50.5 45% 29.86 0.0
16 15:10 W 12 G 20 10.00 Partly Cloudy SCT085 75.4 48.9 39% 78 29.86 0.0
16 14:55 W 8 G 17 10.00 Partly Cloudy SCT070 76.3 49.6 39% 78 29.86 0.0
16 14:35 NW 12 G 21 10.00 Fair CLR 76.5 50.5 40% 78 29.86 0.0
16 14:15 NW 13 G 21 10.00 Fair CLR 75.9 51.1 42% 78 29.86 0.0
16 13:55 NW 14 G 20 10.00 Fair CLR 75.6 50.2 41% 78 29.87 0.0
16 13:35 NW 13 10.00 Fair CLR 75.4 49.5 40% 78 29.87 0.0
16 13:15 NW 8 G 18 10.00 Fair CLR 75 50.4 42% 78 29.87 0.0
16 12:55 NW 15 G 21 10.00 Fair CLR 74.5 50.4 74.7 61.7 43% 29.87 0.0
16 12:35 NW 13 10.00 Fair CLR 74.3 50.4 43% 29.87 0.0
16 12:15 NW 10 G 17 10.00 Fair CLR 73.9 51.4 45% 29.87 0.0
16 11:55 NW 15 G 21 10.00 Fair CLR 73 50 44% 29.87 0.0
16 11:35 NW 14 G 21 10.00 Fair CLR 73 51.3 46% 29.87 0.0
16 11:15 NW 17 10.00 Fair CLR 72.9 51.4 47% 29.86 0.0
16 10:55 NW 13 G 18 10.00 Fair CLR 72.7 52.3 49% 29.85 0.0
16 10:35 NW 9 10.00 Fair CLR 72.1 52.2 50% 29.86 0.0
16 10:15 NW 9 G 16 10.00 Fair CLR 71.6 53.6 53% 29.86 0.0
16 09:55 NW 9 10.00 Partly Cloudy SCT070 70.7 54.3 56% 29.85 0.0
16 09:35 NW 7 10.00 Mostly Cloudy BKN070 68 54 61% 29.85 0.0
16 09:15 NW 5 10.00 Fair CLR 69.3 55.2 61% 29.85 0.0
16 08:55 W 3 10.00 Partly Cloudy SCT075 SCT090 68.5 56.3 65% 29.85 0.0
16 08:35 NW 5 10.00 Mostly Cloudy SCT075 BKN090 67.1 56.3 68% 29.85 0.0
16 08:15 Calm 10.00 Partly Cloudy SCT090 68 58.3 71% 29.84 0.0
16 07:55 Calm 10.00 Fair CLR 66.2 58.6 77% 29.83 0.0
16 07:15 NW 6 10.00 Fair CLR 62.6 58.3 86% 29.82 0.0
16 06:55 Calm 10.00 Fair CLR 62.2 57.6 63.7 56.5 85% 29.81 0.0
16 06:35 Calm 10.00 Fair CLR 61.3 57.2 86% 29.81 0.0
16 06:15 W 3 10.00 Fair CLR 61.5 56.7 84% 29.81 0.0
16 05:55 Calm 10.00 Fair CLR 57.4 55.6 94% 29.8 0.0
16 05:35 NW 3 10.00 Fair CLR 59.7 56.5 89% 29.8 0.0
16 05:15 NW 7 10.00 Fair CLR 59.5 57 91% 29.81 0.0
16 04:55 NW 5 10.00 Fair CLR 58.8 56.7 93% 29.8 0.0
16 04:35 Calm 10.00 Fair CLR 59.4 57.2 93% 29.8 0.0
16 04:15 Calm 10.00 Fair CLR 57.2 56.1 96% 29.79 0.0
16 03:55 Calm 10.00 Fair CLR 58.3 57 96% 29.8 0.0
16 03:35 Calm 10.00 Fair CLR 58.1 56.8 96% 29.8 0.0
16 03:15 SW 3 10.00 Fair CLR 59.2 57.9 96% 29.8 0.0
16 02:55 Calm 10.00 Fair CLR 58.8 57 94% 29.8 0.0
16 02:35 Calm 10.00 Fair CLR 61 58.5 91% 29.8 0.0
16 02:15 Calm 10.00 Fair CLR 62.2 59.2 90% 29.8 0.0
16 01:55 N 6 10.00 Fair CLR 61 58.1 90% 29.81 0.0
16 01:35 Calm 10.00 Fair CLR 59.4 58.1 96% 29.81 0.0
16 01:15 Calm 10.00 Fair CLR 62.4 61 95% 29.8 0.0
16 00:55 Calm 10.00 Fair CLR 63.1 62.1 72.5 62.6 96% 29.8 0.0
16 00:35 Calm 10.00 Fair CLR 64.4 62.6 94% 29.79 0.0
16 00:15 Calm 10.00 Partly Cloudy SCT075 64.9 63 93% 29.79 0.0
15 23:55 Calm 10.00 Overcast OVC075 66.2 63.5 91% 29.78 0.0
15 23:35 Calm 10.00 Overcast SCT050 SCT065 OVC075 66.6 63.9 91% 29.77 0.0
15 23:15 Calm 10.00 Overcast SCT036 SCT065 OVC075 66.7 63.9 91% 29.78 0.0
15 22:55 Calm 10.00 Overcast SCT036 SCT065 OVC075 67.1 63.9 89% 29.77 0.0
15 22:35 NE 3 10.00 Overcast BKN065 OVC075 67.1 64 90% 29.77 0.0
15 22:15 Calm 10.00 Overcast SCT055 OVC070 66.7 64 91% 29.77 0.0
15 21:55 NE 3 10.00 Mostly Cloudy SCT055 BKN070 66.2 63.9 92% 29.76 0.0
15 21:35 NE 3 10.00 Partly Cloudy SCT055 66.2 63.9 92% 29.76 0.0
15 21:15 N 3 10.00 Mostly Cloudy SCT055 BKN065 66.6 64.4 93% 29.74 0.0
15 20:55 NE 5 10.00 Mostly Cloudy BKN055 67.6 64.4 89% 29.73 0.0
15 20:35 NE 7 10.00 Partly Cloudy SCT055 68.4 64.9 89% 29.73 0.0
15 20:20 N 7 10.00 Partly Cloudy SCT049 SCT060 68.9 65.3 88% 29.72 0.0
15 19:55 NE 5 10.00 Partly Cloudy SCT049 SCT060 70.7 65.5 84% 29.71 0.0
15 19:35 NE 6 10.00 Partly Cloudy SCT049 SCT060 SCT080 71.6 65.3 81% 29.71 0.0
15 19:15 NE 7 10.00 Mostly Cloudy SCT049 SCT060 BKN080 72.5 65.3 78% 29.71 0.0
15 18:50 NE 9 10.00 Partly Cloudy SCT055 SCT070 SCT080 72.9 64.4 85.3 71.1 75% 29.71 0.0
15 18:35 NE 7 10.00 Mostly Cloudy SCT060 SCT070 BKN080 71.2 63.7 77% 29.71 0.0
15 18:15 NE 10 10.00 Partly Cloudy SCT043 SCT055 SCT085 73.6 64.4 73% 29.71 0.0
15 17:55 NE 10 10.00 Partly Cloudy SCT045 SCT070 74.8 67.3 77% 29.71 0.0
15 17:35 NE 9 10.00 Partly Cloudy SCT050 SCT060 SCT070 74.5 67.3 78% 29.7 0.0
15 17:15 N 16 G 22 10.00 Mostly Cloudy SCT048 BKN060 BKN070 79.7 65.3 62% 82 29.69 0.0
15 16:55 NW 8 10.00 Partly Cloudy SCT044 SCT050 SCT065 80.4 69.4 69% 84 29.68 0.0
15 16:35 SW 6 10.00 Mostly Cloudy SCT042 BKN055 BKN065 78.3 71.8 81% 81 29.69 0.0
15 16:15 S 5 10.00 Overcast SCT042 BKN050 OVC070 74.7 70 85% 29.69 0.0
15 15:55 SW 3 7.00 Light Rain SCT013 BKN050 OVC070 72.9 68.5 86% 29.69 0.0
15 15:35 N 10 10.00 Heavy Rain OVC044 76.3 67.5 74% 78 29.69 0.0
15 15:15 N 9 G 17 10.00 Mostly Cloudy BKN044 BKN050 BKN070 82.9 65.8 56% 85 29.68 0.0
15 14:55 W 17 10.00 Partly Cloudy SCT048 SCT075 85.1 65.3 52% 87 29.67 0.0
15 14:35 W 17 G 24 10.00 Mostly Cloudy BKN048 BKN070 84.2 64.9 52% 86 29.67 0.0
15 14:15 SW 13 G 16 10.00 Mostly Cloudy BKN070 84.7 65.1 52% 87 29.67 0.0
15 13:55 W 14 G 20 10.00 Overcast OVC060 84.4 64.6 52% 86 29.68 0.0
15 13:35 W 12 G 21 10.00 Mostly Cloudy SCT050 BKN060 83.8 63.3 50% 85 29.69 0.0
15 13:15 SW 9 10.00 Partly Cloudy SCT047 SCT060 SCT070 84.6 65.3 53% 86 29.69 0.0
15 12:55 SW 8 10.00 Partly Cloudy SCT047 SCT065 SCT070 84.4 65.5 84.4 60.8 53% 86 29.69 0.0
15 12:35 E 5 10.00 Mostly Cloudy SCT044 SCT050 BKN065 78.6 67.5 69% 81 29.7 0.0
15 12:15 E 5 10.00 Mostly Cloudy BKN044 BKN050 BKN110 77.5 66.7 69% 79 29.72 0.0
15 11:55 N 5 10.00 Mostly Cloudy SCT042 BKN050 80.2 67.8 66% 83 29.72 0.0
15 11:35 Calm 10.00 Mostly Cloudy SCT038 BKN050 BKN110 80.8 65.8 61% 83 29.73 0.0
15 11:15 S 8 10.00 Partly Cloudy SCT050 80.1 65.7 62% 82 29.74 0.0
15 10:55 Calm 10.00 Fair CLR 78.4 64.6 63% 80 29.75 0.0
15 10:35 Calm 10.00 Partly Cloudy SCT050 SCT065 SCT100 76.6 62.8 62% 78 29.75 0.0
15 10:15 Calm 10.00 Mostly Cloudy BKN050 75.4 63.3 66% 77 29.76 0.0
15 09:55 Calm 10.00 Mostly Cloudy BKN050 73.4 62.2 68% 29.77 0.0
15 09:35 Calm 10.00 Fair CLR 73.6 63 70% 29.77 0.0
15 09:15 Calm 10.00 Fair CLR 70.2 63.3 79% 29.76 0.0
15 08:55 Calm 10.00 Fair CLR 66.9 64.2 91% 29.78 0.0
15 08:35 Calm 10.00 Partly Cloudy SCT110 65.5 63.3 93% 29.78 0.0
15 08:15 Calm 10.00 Partly Cloudy SCT041 SCT055 SCT080 64.4 63.3 96% 29.8 0.0
15 07:55 S 5 10.00 Light Drizzle SCT042 SCT050 BKN120 62.2 61.3 97% 29.8 0.0
15 07:35 Calm 10.00 Fair CLR 61.7 60.8 97% 29.82 0.0
15 07:15 Calm 10.00 Fair CLR 61.7 60.8 97% 29.82 0.0
Date Time (cdt) Wind (mph) Vis. (mi.) Weather Sky Cond. Air Dwpt Max. Min. Relative Humidity Wind Chill (°F) Heat Index (°F) altimeter (in) sea level (mb) 1 hr 3 hr 6 hr
6 hour
Temperature (ºF) Pressure Precipitation (in)